contact:dominique.lefevre@mio.osupytheas.fr, maurice.libes@osupytheas.fr, didier.mallarino@osupytheas.fr
Project:EMSO http://www.emso-fr.org/EMSO-France
Depth: 2436.0 m
Title:EMSO Ligure Ouest : Data MII capteur CSTAR
DateTime,Latitude,Longitude,Instrument_Serial,Reference_Counts,Signal_Counts,Corrected_Signal_raw_counts,Calculated_Beam_c_inverse_meters,Internal_thermistor_counts
DateTime,Latitude,Longitude,Instrument_Serial,Reference_Counts,Signal_Counts,Corrected_Signal_raw_counts,Calculated_Beam_c_inverse_meters,Internal_thermistor_counts
2021-06-09T00:00:34,42.805,6.029,CST-1368DR,5500,7671,14978,0.167,551
2021-06-09T00:03:35,42.805,6.029,CST-1368DR,5500,7674,14982,0.166,551
2021-06-09T00:06:37,42.805,6.029,CST-1368DR,5500,7674,14982,0.166,551
2021-06-09T00:09:38,42.805,6.029,CST-1368DR,5500,7674,14983,0.166,551
2021-06-09T00:12:40,42.805,6.029,CST-1368DR,5500,7673,14982,0.166,551
2021-06-09T00:15:42,42.805,6.029,CST-1368DR,5500,7673,14980,0.166,551
2021-06-09T00:18:43,42.805,6.029,CST-1368DR,5500,7671,14978,0.167,551
2021-06-09T00:21:45,42.805,6.029,CST-1368DR,5500,7669,14973,0.168,551
2021-06-09T00:24:46,42.805,6.029,CST-1368DR,5500,7673,14981,0.166,551
2021-06-09T00:27:48,42.805,6.029,CST-1368DR,5500,7674,14983,0.166,551
2021-06-09T00:30:49,42.805,6.029,CST-1368DR,5500,7674,14983,0.166,551
2021-06-09T00:33:51,42.805,6.029,CST-1368DR,5500,7672,14980,0.166,551
2021-06-09T00:36:53,42.805,6.029,CST-1368DR,5500,7672,14979,0.167,551
2021-06-09T00:39:54,42.805,6.029,CST-1368DR,5500,7673,14981,0.166,551
2021-06-09T00:42:56,42.805,6.029,CST-1368DR,5499,7671,14980,0.166,551
2021-06-09T00:45:57,42.805,6.029,CST-1368DR,5499,7672,14981,0.166,551
2021-06-09T00:48:59,42.805,6.029,CST-1368DR,5499,7672,14981,0.166,551
2021-06-09T00:52:01,42.805,6.029,CST-1368DR,5499,7671,14980,0.166,551
2021-06-09T00:55:02,42.805,6.029,CST-1368DR,5499,7672,14981,0.166,551
2021-06-09T00:58:04,42.805,6.029,CST-1368DR,5499,7672,14981,0.166,551
2021-06-09T01:01:05,42.805,6.029,CST-1368DR,5499,7671,14980,0.166,550
2021-06-09T01:04:07,42.805,6.029,CST-1368DR,5499,7669,14975,0.168,550
2021-06-09T01:07:08,42.805,6.029,CST-1368DR,5499,7673,14983,0.166,551
2021-06-09T01:10:10,42.805,6.029,CST-1368DR,5499,7672,14981,0.166,551
2021-06-09T01:13:12,42.805,6.029,CST-1368DR,5499,7673,14983,0.166,551
2021-06-09T01:16:13,42.805,6.029,CST-1368DR,5499,7673,14983,0.166,551
2021-06-09T01:19:15,42.805,6.029,CST-1368DR,5499,7672,14982,0.166,551
2021-06-09T01:22:16,42.805,6.029,CST-1368DR,5499,7672,14982,0.166,551
2021-06-09T01:25:18,42.805,6.029,CST-1368DR,5499,7673,14983,0.166,551
2021-06-09T01:28:19,42.805,6.029,CST-1368DR,5499,7673,14984,0.165,551
2021-06-09T01:31:21,42.805,6.029,CST-1368DR,5499,7673,14984,0.165,551
2021-06-09T01:34:23,42.805,6.029,CST-1368DR,5499,7674,14985,0.165,551
2021-06-09T01:37:24,42.805,6.029,CST-1368DR,5499,7672,14982,0.166,551
2021-06-09T01:40:26,42.805,6.029,CST-1368DR,5499,7673,14984,0.165,551
2021-06-09T01:43:27,42.805,6.029,CST-1368DR,5499,7671,14979,0.167,551
2021-06-09T01:46:29,42.805,6.029,CST-1368DR,5499,7672,14981,0.166,551
2021-06-09T01:49:31,42.805,6.029,CST-1368DR,5499,7670,14977,0.167,551
2021-06-09T01:52:32,42.805,6.029,CST-1368DR,5499,7673,14983,0.166,551
2021-06-09T01:55:34,42.805,6.029,CST-1368DR,5499,7673,14983,0.166,551
2021-06-09T01:58:35,42.805,6.029,CST-1368DR,5499,7673,14984,0.165,551
2021-06-09T02:01:37,42.805,6.029,CST-1368DR,5499,7673,14983,0.166,551
2021-06-09T02:04:38,42.805,6.029,CST-1368DR,5499,7672,14982,0.166,551
2021-06-09T02:07:40,42.805,6.029,CST-1368DR,5499,7672,14981,0.166,551
2021-06-09T02:10:42,42.805,6.029,CST-1368DR,5499,7672,14981,0.166,551
2021-06-09T02:13:43,42.805,6.029,CST-1368DR,5499,7673,14983,0.166,551
2021-06-09T02:16:45,42.805,6.029,CST-1368DR,5499,7671,14980,0.166,550
2021-06-09T02:19:46,42.805,6.029,CST-1368DR,5499,7673,14984,0.165,551
2021-06-09T02:22:48,42.805,6.029,CST-1368DR,5499,7674,14985,0.165,551
2021-06-09T02:25:50,42.805,6.029,CST-1368DR,5499,7673,14984,0.165,551
2021-06-09T02:28:51,42.805,6.029,CST-1368DR,5499,7670,14978,0.167,551
2021-06-09T02:31:53,42.805,6.029,CST-1368DR,5499,7673,14984,0.165,551
2021-06-09T02:34:54,42.805,6.029,CST-1368DR,5499,7673,14984,0.165,550
2021-06-09T02:37:56,42.805,6.029,CST-1368DR,5500,7674,14983,0.166,551
2021-06-09T02:40:57,42.805,6.029,CST-1368DR,5499,7673,14983,0.166,551
2021-06-09T02:43:59,42.805,6.029,CST-1368DR,5499,7672,14982,0.166,551
2021-06-09T02:47:01,42.805,6.029,CST-1368DR,5499,7672,14981,0.166,551
2021-06-09T02:50:02,42.805,6.029,CST-1368DR,5499,7673,14984,0.165,551
2021-06-09T02:53:04,42.805,6.029,CST-1368DR,5499,7669,14976,0.167,551
2021-06-09T02:56:05,42.805,6.029,CST-1368DR,5499,7672,14981,0.166,551
2021-06-09T02:59:07,42.805,6.029,CST-1368DR,5499,7673,14984,0.165,550
2021-06-09T03:02:08,42.805,6.029,CST-1368DR,5499,7672,14982,0.166,551
2021-06-09T03:05:10,42.805,6.029,CST-1368DR,5499,7673,14984,0.165,551
2021-06-09T03:08:12,42.805,6.029,CST-1368DR,5499,7669,14975,0.168,551
2021-06-09T03:11:13,42.805,6.029,CST-1368DR,5499,7667,14972,0.168,551
2021-06-09T03:14:15,42.805,6.029,CST-1368DR,5499,7672,14982,0.166,551
2021-06-09T03:17:16,42.805,6.029,CST-1368DR,5499,7672,14982,0.166,551
2021-06-09T03:20:18,42.805,6.029,CST-1368DR,5499,7673,14983,0.166,551
2021-06-09T03:23:20,42.805,6.029,CST-1368DR,5499,7670,14977,0.167,551
2021-06-09T03:26:21,42.805,6.029,CST-1368DR,5499,7673,14984,0.165,551
2021-06-09T03:29:23,42.805,6.029,CST-1368DR,5500,7673,14980,0.166,551
2021-06-09T03:32:24,42.805,6.029,CST-1368DR,5500,7673,14981,0.166,551
2021-06-09T03:35:26,42.805,6.029,CST-1368DR,5500,7673,14980,0.166,551
2021-06-09T03:38:27,42.805,6.029,CST-1368DR,5500,7672,14979,0.167,551
2021-06-09T03:41:29,42.805,6.029,CST-1368DR,5499,7674,14985,0.165,551
2021-06-09T03:44:31,42.805,6.029,CST-1368DR,5499,7673,14983,0.166,551
2021-06-09T03:47:32,42.805,6.029,CST-1368DR,5500,7673,14981,0.166,551
2021-06-09T03:50:34,42.805,6.029,CST-1368DR,5500,7671,14978,0.167,551
2021-06-09T03:53:35,42.805,6.029,CST-1368DR,5499,7673,14983,0.166,551
2021-06-09T03:56:37,42.805,6.029,CST-1368DR,5500,7673,14981,0.166,551
2021-06-09T03:59:39,42.805,6.029,CST-1368DR,5500,7673,14980,0.166,551
2021-06-09T04:02:40,42.805,6.029,CST-1368DR,5500,7670,14975,0.168,551
2021-06-09T04:05:42,42.805,6.029,CST-1368DR,5500,7673,14980,0.166,551
2021-06-09T04:08:43,42.805,6.029,CST-1368DR,5500,7672,14980,0.166,551
2021-06-09T04:11:45,42.805,6.029,CST-1368DR,5500,7672,14979,0.167,551
2021-06-09T04:14:46,42.805,6.029,CST-1368DR,5500,7668,14971,0.169,551
2021-06-09T04:17:48,42.805,6.029,CST-1368DR,5500,7673,14980,0.166,551
2021-06-09T04:20:50,42.805,6.029,CST-1368DR,5500,7671,14978,0.167,551
2021-06-09T04:23:51,42.805,6.029,CST-1368DR,5500,7672,14980,0.166,551
2021-06-09T04:26:53,42.805,6.029,CST-1368DR,5500,7672,14980,0.166,551
2021-06-09T04:29:54,42.805,6.029,CST-1368DR,5500,7673,14981,0.166,551
2021-06-09T04:32:56,42.805,6.029,CST-1368DR,5500,7672,14979,0.167,551
2021-06-09T04:35:58,42.805,6.029,CST-1368DR,5500,7672,14980,0.166,551
2021-06-09T04:38:59,42.805,6.029,CST-1368DR,5500,7671,14976,0.167,551
2021-06-09T04:42:01,42.805,6.029,CST-1368DR,5500,7672,14979,0.167,551
2021-06-09T04:45:02,42.805,6.029,CST-1368DR,5500,7673,14981,0.166,551
2021-06-09T04:48:04,42.805,6.029,CST-1368DR,5500,7670,14976,0.167,551
2021-06-09T04:51:05,42.805,6.029,CST-1368DR,5500,7672,14979,0.167,551
2021-06-09T04:54:07,42.805,6.029,CST-1368DR,5500,7673,14981,0.166,551
2021-06-09T04:57:09,42.805,6.029,CST-1368DR,5499,7672,14982,0.166,551
2021-06-09T05:00:10,42.805,6.029,CST-1368DR,5500,7673,14980,0.166,551
2021-06-09T05:03:12,42.805,6.029,CST-1368DR,5499,7672,14982,0.166,551
2021-06-09T05:06:13,42.805,6.029,CST-1368DR,5500,7672,14980,0.166,551
2021-06-09T05:09:15,42.805,6.029,CST-1368DR,5500,7672,14980,0.166,551
2021-06-09T05:12:16,42.805,6.029,CST-1368DR,5500,7672,14979,0.167,551
2021-06-09T05:15:18,42.805,6.029,CST-1368DR,5500,7669,14973,0.168,551
2021-06-09T05:18:20,42.805,6.029,CST-1368DR,5500,7672,14979,0.167,551
2021-06-09T05:21:21,42.805,6.029,CST-1368DR,5500,7672,14979,0.167,551
2021-06-09T05:24:23,42.805,6.029,CST-1368DR,5500,7673,14981,0.166,551
2021-06-09T05:27:24,42.805,6.029,CST-1368DR,5499,7672,14981,0.166,551
2021-06-09T05:30:26,42.805,6.029,CST-1368DR,5500,7672,14980,0.166,551
2021-06-09T05:33:28,42.805,6.029,CST-1368DR,5500,7673,14980,0.166,551
2021-06-09T05:36:29,42.805,6.029,CST-1368DR,5499,7671,14980,0.166,551
2021-06-09T05:39:31,42.805,6.029,CST-1368DR,5499,7672,14981,0.166,551
2021-06-09T05:42:32,42.805,6.029,CST-1368DR,5500,7674,14982,0.166,551
2021-06-09T05:45:34,42.805,6.029,CST-1368DR,5500,7673,14980,0.166,551
2021-06-09T05:48:35,42.805,6.029,CST-1368DR,5499,7673,14983,0.166,551
2021-06-09T05:51:37,42.805,6.029,CST-1368DR,5499,7673,14983,0.166,551
2021-06-09T05:54:39,42.805,6.029,CST-1368DR,5499,7673,14983,0.166,551
2021-06-09T05:57:40,42.805,6.029,CST-1368DR,5500,7673,14980,0.166,551
2021-06-09T06:00:42,42.805,6.029,CST-1368DR,5500,7671,14978,0.167,551
2021-06-09T06:03:43,42.805,6.029,CST-1368DR,5500,7672,14980,0.166,551
2021-06-09T06:06:45,42.805,6.029,CST-1368DR,5499,7672,14982,0.166,551
2021-06-09T06:09:47,42.805,6.029,CST-1368DR,5499,7670,14977,0.167,550
2021-06-09T06:12:48,42.805,6.029,CST-1368DR,5499,7671,14980,0.166,551
2021-06-09T06:15:50,42.805,6.029,CST-1368DR,5499,7673,14983,0.166,551
2021-06-09T06:18:51,42.805,6.029,CST-1368DR,5499,7672,14981,0.166,550
2021-06-09T06:21:53,42.805,6.029,CST-1368DR,5499,7672,14981,0.166,551
2021-06-09T06:24:54,42.805,6.029,CST-1368DR,5499,7673,14983,0.166,551
2021-06-09T06:27:56,42.805,6.029,CST-1368DR,5499,7672,14982,0.166,551
2021-06-09T06:30:58,42.805,6.029,CST-1368DR,5499,7670,14978,0.167,551
2021-06-09T06:33:59,42.805,6.029,CST-1368DR,5500,7673,14980,0.166,551
2021-06-09T06:37:01,42.805,6.029,CST-1368DR,5499,7672,14981,0.166,551
2021-06-09T06:40:02,42.805,6.029,CST-1368DR,5499,7672,14982,0.166,551
2021-06-09T06:43:04,42.805,6.029,CST-1368DR,5499,7671,14980,0.166,551
2021-06-09T06:46:05,42.805,6.029,CST-1368DR,5499,7670,14978,0.167,551
2021-06-09T06:49:07,42.805,6.029,CST-1368DR,5499,7672,14982,0.166,551
2021-06-09T06:52:09,42.805,6.029,CST-1368DR,5500,7673,14980,0.166,551
2021-06-09T06:55:10,42.805,6.029,CST-1368DR,5499,7672,14981,0.166,551
2021-06-09T06:58:12,42.805,6.029,CST-1368DR,5499,7672,14982,0.166,551
2021-06-09T07:01:13,42.805,6.029,CST-1368DR,5499,7672,14981,0.166,551
2021-06-09T07:04:15,42.805,6.029,CST-1368DR,5499,7672,14982,0.166,551
2021-06-09T07:07:17,42.805,6.029,CST-1368DR,5499,7673,14984,0.165,551
2021-06-09T07:10:18,42.805,6.029,CST-1368DR,5499,7672,14981,0.166,551
2021-06-09T07:13:20,42.805,6.029,CST-1368DR,5499,7672,14982,0.166,551
2021-06-09T07:16:21,42.805,6.029,CST-1368DR,5499,7672,14981,0.166,550
2021-06-09T07:19:23,42.805,6.029,CST-1368DR,5499,7672,14982,0.166,551
2021-06-09T07:22:24,42.805,6.029,CST-1368DR,5499,7672,14981,0.166,551
2021-06-09T07:25:26,42.805,6.029,CST-1368DR,5499,7673,14983,0.166,551
2021-06-09T07:28:28,42.805,6.029,CST-1368DR,5499,7673,14983,0.166,551
2021-06-09T07:31:29,42.805,6.029,CST-1368DR,5499,7672,14982,0.166,551
2021-06-09T07:34:31,42.805,6.029,CST-1368DR,5499,7671,14980,0.166,551
2021-06-09T07:37:32,42.805,6.029,CST-1368DR,5499,7672,14982,0.166,551
2021-06-09T07:40:34,42.805,6.029,CST-1368DR,5499,7672,14982,0.166,551
2021-06-09T07:43:36,42.805,6.029,CST-1368DR,5499,7672,14981,0.166,551
2021-06-09T07:46:37,42.805,6.029,CST-1368DR,5499,7672,14981,0.166,551
2021-06-09T07:49:39,42.805,6.029,CST-1368DR,5499,7673,14983,0.166,551
2021-06-09T07:52:40,42.805,6.029,CST-1368DR,5499,7671,14979,0.167,551
2021-06-09T07:55:42,42.805,6.029,CST-1368DR,5499,7672,14982,0.166,551
2021-06-09T07:58:43,42.805,6.029,CST-1368DR,5499,7671,14980,0.166,551
2021-06-09T08:01:45,42.805,6.029,CST-1368DR,5499,7671,14979,0.167,551
2021-06-09T08:04:47,42.805,6.029,CST-1368DR,5499,7672,14981,0.166,551
2021-06-09T08:07:48,42.805,6.029,CST-1368DR,5499,7671,14980,0.166,551
2021-06-09T08:10:50,42.805,6.029,CST-1368DR,5499,7672,14981,0.166,551
2021-06-09T08:13:51,42.805,6.029,CST-1368DR,5499,7671,14979,0.167,551
2021-06-09T08:16:53,42.805,6.029,CST-1368DR,5499,7671,14980,0.166,551
2021-06-09T08:19:55,42.805,6.029,CST-1368DR,5499,7670,14978,0.167,551
2021-06-09T08:22:56,42.805,6.029,CST-1368DR,5499,7671,14980,0.166,551
2021-06-09T08:25:58,42.805,6.029,CST-1368DR,5499,7670,14978,0.167,551
2021-06-09T08:28:59,42.805,6.029,CST-1368DR,5499,7670,14978,0.167,551
2021-06-09T08:32:01,42.805,6.029,CST-1368DR,5499,7671,14980,0.166,550
2021-06-09T08:35:02,42.805,6.029,CST-1368DR,5499,7671,14979,0.167,551
2021-06-09T08:38:04,42.805,6.029,CST-1368DR,5499,7669,14976,0.167,551
2021-06-09T08:41:06,42.805,6.029,CST-1368DR,5499,7670,14978,0.167,551
2021-06-09T08:44:07,42.805,6.029,CST-1368DR,5499,7670,14978,0.167,551
2021-06-09T08:47:09,42.805,6.029,CST-1368DR,5499,7671,14980,0.166,551
2021-06-09T08:50:10,42.805,6.029,CST-1368DR,5499,7671,14980,0.166,551
2021-06-09T08:53:12,42.805,6.029,CST-1368DR,5499,7671,14980,0.166,551
2021-06-09T08:56:13,42.805,6.029,CST-1368DR,5499,7670,14978,0.167,551
2021-06-09T08:59:15,42.805,6.029,CST-1368DR,5499,7670,14977,0.167,551
2021-06-09T09:02:17,42.805,6.029,CST-1368DR,5499,7670,14977,0.167,551
2021-06-09T09:05:18,42.805,6.029,CST-1368DR,5499,7670,14977,0.167,551
2021-06-09T09:08:20,42.805,6.029,CST-1368DR,5499,7671,14980,0.166,551
2021-06-09T09:11:21,42.805,6.029,CST-1368DR,5499,7671,14980,0.166,551
2021-06-09T09:14:23,42.805,6.029,CST-1368DR,5499,7670,14978,0.167,551
2021-06-09T09:17:25,42.805,6.029,CST-1368DR,5499,7670,14977,0.167,551
2021-06-09T09:20:26,42.805,6.029,CST-1368DR,5499,7670,14977,0.167,551
2021-06-09T09:23:28,42.805,6.029,CST-1368DR,5499,7670,14977,0.167,551
2021-06-09T09:26:29,42.805,6.029,CST-1368DR,5499,7670,14978,0.167,551
2021-06-09T09:29:31,42.805,6.029,CST-1368DR,5499,7669,14976,0.167,551
2021-06-09T09:32:32,42.805,6.029,CST-1368DR,5499,7669,14975,0.168,551
2021-06-09T09:35:34,42.805,6.029,CST-1368DR,5499,7669,14975,0.168,551
2021-06-09T09:38:36,42.805,6.029,CST-1368DR,5499,7671,14979,0.167,551
2021-06-09T09:41:37,42.805,6.029,CST-1368DR,5499,7670,14977,0.167,551
2021-06-09T09:44:39,42.805,6.029,CST-1368DR,5499,7670,14977,0.167,551
2021-06-09T09:47:40,42.805,6.029,CST-1368DR,5499,7668,14974,0.168,550
2021-06-09T09:50:42,42.805,6.029,CST-1368DR,5499,7670,14977,0.167,551
2021-06-09T09:53:44,42.805,6.029,CST-1368DR,5499,7670,14978,0.167,551
2021-06-09T09:56:45,42.805,6.029,CST-1368DR,5499,7670,14977,0.167,551
2021-06-09T09:59:47,42.805,6.029,CST-1368DR,5499,7670,14977,0.167,551
2021-06-09T10:02:48,42.805,6.029,CST-1368DR,5499,7660,14957,0.172,551
2021-06-09T10:05:50,42.805,6.029,CST-1368DR,5499,7669,14976,0.167,551
2021-06-09T10:08:51,42.805,6.029,CST-1368DR,5499,7670,14978,0.167,551
2021-06-09T10:11:53,42.805,6.029,CST-1368DR,5499,7670,14978,0.167,551
2021-06-09T10:14:55,42.805,6.029,CST-1368DR,5499,7669,14975,0.168,551
2021-06-09T10:17:56,42.805,6.029,CST-1368DR,5499,7669,14976,0.167,551
2021-06-09T10:20:58,42.805,6.029,CST-1368DR,5499,7669,14975,0.168,551
2021-06-09T10:23:59,42.805,6.029,CST-1368DR,5499,7670,14978,0.167,551
2021-06-09T10:27:01,42.805,6.029,CST-1368DR,5499,7669,14975,0.168,551
2021-06-09T10:30:02,42.805,6.029,CST-1368DR,5499,7669,14975,0.168,551
2021-06-09T10:33:04,42.805,6.029,CST-1368DR,5499,7669,14976,0.167,551
2021-06-09T10:36:06,42.805,6.029,CST-1368DR,5499,7670,14978,0.167,551
2021-06-09T10:39:07,42.805,6.029,CST-1368DR,5499,7669,14976,0.167,551
2021-06-09T10:42:09,42.805,6.029,CST-1368DR,5499,7670,14977,0.167,550
2021-06-09T10:45:10,42.805,6.029,CST-1368DR,5499,7670,14978,0.167,551
2021-06-09T10:48:12,42.805,6.029,CST-1368DR,5499,7669,14976,0.167,551
2021-06-09T10:51:14,42.805,6.029,CST-1368DR,5499,7670,14977,0.167,551
2021-06-09T10:54:15,42.805,6.029,CST-1368DR,5499,7669,14976,0.167,551
2021-06-09T10:57:17,42.805,6.029,CST-1368DR,5499,7666,14970,0.169,551
2021-06-09T11:00:18,42.805,6.029,CST-1368DR,5499,7669,14976,0.167,550
2021-06-09T11:03:20,42.805,6.029,CST-1368DR,5499,7670,14977,0.167,551
2021-06-09T11:06:21,42.805,6.029,CST-1368DR,5499,7668,14973,0.168,551
2021-06-09T11:09:23,42.805,6.029,CST-1368DR,5499,7670,14977,0.167,551
2021-06-09T11:12:25,42.805,6.029,CST-1368DR,5499,7669,14975,0.168,551
2021-06-09T11:15:26,42.805,6.029,CST-1368DR,5499,7670,14977,0.167,551
2021-06-09T11:18:28,42.805,6.029,CST-1368DR,5499,7669,14976,0.167,551
2021-06-09T11:21:29,42.805,6.029,CST-1368DR,5499,7670,14978,0.167,551
2021-06-09T11:24:31,42.805,6.029,CST-1368DR,5499,7668,14973,0.168,551
2021-06-09T11:27:32,42.805,6.029,CST-1368DR,5499,7668,14974,0.168,551
2021-06-09T11:30:34,42.805,6.029,CST-1368DR,5499,7669,14976,0.167,551
2021-06-09T11:33:36,42.805,6.029,CST-1368DR,5499,7669,14976,0.167,551
2021-06-09T11:36:37,42.805,6.029,CST-1368DR,5499,7669,14976,0.167,551
2021-06-09T11:39:39,42.805,6.029,CST-1368DR,5499,7668,14974,0.168,551
2021-06-09T11:42:40,42.805,6.029,CST-1368DR,5499,7669,14976,0.167,551
2021-06-09T11:45:42,42.805,6.029,CST-1368DR,5499,7669,14976,0.167,551
2021-06-09T11:48:44,42.805,6.029,CST-1368DR,5499,7670,14977,0.167,551
2021-06-09T11:51:45,42.805,6.029,CST-1368DR,5499,7670,14978,0.167,551
2021-06-09T11:54:47,42.805,6.029,CST-1368DR,5499,7668,14974,0.168,551
2021-06-09T11:57:48,42.805,6.029,CST-1368DR,5499,7670,14977,0.167,551
2021-06-09T12:00:50,42.805,6.029,CST-1368DR,5499,7669,14976,0.167,551
2021-06-09T12:03:51,42.805,6.029,CST-1368DR,5499,7669,14976,0.167,550
2021-06-09T12:06:53,42.805,6.029,CST-1368DR,5499,7670,14977,0.167,550
2021-06-09T12:09:55,42.805,6.029,CST-1368DR,5499,7669,14976,0.167,551
2021-06-09T12:12:56,42.805,6.029,CST-1368DR,5499,7668,14974,0.168,551
2021-06-09T12:15:58,42.805,6.029,CST-1368DR,5499,7670,14977,0.167,551
2021-06-09T12:18:59,42.805,6.029,CST-1368DR,5499,7668,14973,0.168,551
2021-06-09T12:22:01,42.805,6.029,CST-1368DR,5499,7670,14978,0.167,551
2021-06-09T12:25:03,42.805,6.029,CST-1368DR,5499,7669,14976,0.167,551
2021-06-09T12:28:04,42.805,6.029,CST-1368DR,5499,7670,14978,0.167,551
2021-06-09T12:31:06,42.805,6.029,CST-1368DR,5499,7670,14977,0.167,551
2021-06-09T12:34:07,42.805,6.029,CST-1368DR,5499,7667,14972,0.168,550
2021-06-09T12:37:09,42.805,6.029,CST-1368DR,5499,7668,14974,0.168,551
2021-06-09T12:40:10,42.805,6.029,CST-1368DR,5499,7669,14975,0.168,551
2021-06-09T12:43:12,42.805,6.029,CST-1368DR,5499,7666,14970,0.169,551
2021-06-09T12:46:14,42.805,6.029,CST-1368DR,5499,7668,14974,0.168,551
2021-06-09T12:49:15,42.805,6.029,CST-1368DR,5499,7668,14974,0.168,551
2021-06-09T12:52:17,42.805,6.029,CST-1368DR,5499,7668,14974,0.168,551
2021-06-09T12:55:18,42.805,6.029,CST-1368DR,5499,7669,14976,0.167,551
2021-06-09T12:58:20,42.805,6.029,CST-1368DR,5499,7669,14976,0.167,551
2021-06-09T13:01:22,42.805,6.029,CST-1368DR,5499,7669,14976,0.167,551
2021-06-09T13:04:23,42.805,6.029,CST-1368DR,5499,7669,14975,0.168,551
2021-06-09T13:07:25,42.805,6.029,CST-1368DR,5499,7669,14975,0.168,551
2021-06-09T13:10:26,42.805,6.029,CST-1368DR,5499,7670,14978,0.167,551
2021-06-09T13:13:28,42.805,6.029,CST-1368DR,5499,7670,14977,0.167,551
2021-06-09T13:16:29,42.805,6.029,CST-1368DR,5499,7670,14977,0.167,551
2021-06-09T13:19:31,42.805,6.029,CST-1368DR,5499,7669,14976,0.167,551
2021-06-09T13:22:33,42.805,6.029,CST-1368DR,5499,7669,14976,0.167,551
2021-06-09T13:25:34,42.805,6.029,CST-1368DR,5499,7669,14975,0.168,551
2021-06-09T13:28:36,42.805,6.029,CST-1368DR,5499,7670,14977,0.167,551
2021-06-09T13:31:37,42.805,6.029,CST-1368DR,5499,7669,14976,0.167,551
2021-06-09T13:34:39,42.805,6.029,CST-1368DR,5499,7669,14975,0.168,551
2021-06-09T13:37:40,42.805,6.029,CST-1368DR,5499,7668,14973,0.168,551
2021-06-09T13:40:42,42.805,6.029,CST-1368DR,5499,7669,14976,0.167,551
2021-06-09T13:43:44,42.805,6.029,CST-1368DR,5499,7667,14972,0.168,551
2021-06-09T13:46:45,42.805,6.029,CST-1368DR,5499,7669,14975,0.168,551
2021-06-09T13:49:47,42.805,6.029,CST-1368DR,5499,7668,14974,0.168,551
2021-06-09T13:52:48,42.805,6.029,CST-1368DR,5499,7668,14973,0.168,551
2021-06-09T13:55:50,42.805,6.029,CST-1368DR,5499,7669,14976,0.167,551
2021-06-09T13:58:52,42.805,6.029,CST-1368DR,5499,7668,14974,0.168,551
2021-06-09T14:01:53,42.805,6.029,CST-1368DR,5499,7668,14974,0.168,551
2021-06-09T14:04:55,42.805,6.029,CST-1368DR,5498,7669,14978,0.167,551
2021-06-09T14:07:56,42.805,6.029,CST-1368DR,5498,7668,14977,0.167,551
2021-06-09T14:10:58,42.805,6.029,CST-1368DR,5499,7669,14976,0.167,551
2021-06-09T14:13:59,42.805,6.029,CST-1368DR,5499,7670,14977,0.167,551
2021-06-09T14:17:01,42.805,6.029,CST-1368DR,5499,7668,14974,0.168,551
2021-06-09T14:20:03,42.805,6.029,CST-1368DR,5498,7669,14979,0.167,551
2021-06-09T14:23:04,42.805,6.029,CST-1368DR,5498,7668,14977,0.167,551
2021-06-09T14:26:06,42.805,6.029,CST-1368DR,5498,7668,14977,0.167,551
2021-06-09T14:29:07,42.805,6.029,CST-1368DR,5498,7669,14979,0.167,551
2021-06-09T14:32:09,42.805,6.029,CST-1368DR,5498,7668,14976,0.167,551
2021-06-09T14:35:11,42.805,6.029,CST-1368DR,5498,7667,14974,0.168,551
2021-06-09T14:38:12,42.805,6.029,CST-1368DR,5498,7668,14976,0.167,551
2021-06-09T14:41:14,42.805,6.029,CST-1368DR,5498,7666,14972,0.168,551
2021-06-09T14:44:15,42.805,6.029,CST-1368DR,5498,7668,14977,0.167,551
2021-06-09T14:47:17,42.805,6.029,CST-1368DR,5498,7661,14963,0.171,551
2021-06-09T14:50:18,42.805,6.029,CST-1368DR,5498,7669,14979,0.167,551
2021-06-09T14:53:20,42.805,6.029,CST-1368DR,5498,7669,14978,0.167,551
2021-06-09T14:56:22,42.805,6.029,CST-1368DR,5498,7665,14971,0.169,551
2021-06-09T14:59:23,42.805,6.029,CST-1368DR,5498,7668,14976,0.167,551
2021-06-09T15:02:25,42.805,6.029,CST-1368DR,5498,7668,14976,0.167,551
2021-06-09T15:05:26,42.805,6.029,CST-1368DR,5498,7668,14977,0.167,551
2021-06-09T15:08:28,42.805,6.029,CST-1368DR,5498,7669,14978,0.167,551
2021-06-09T15:11:29,42.805,6.029,CST-1368DR,5498,7669,14978,0.167,551
2021-06-09T15:14:31,42.805,6.029,CST-1368DR,5498,7668,14976,0.167,551
2021-06-09T15:17:33,42.805,6.029,CST-1368DR,5498,7668,14976,0.167,551
2021-06-09T15:20:34,42.805,6.029,CST-1368DR,5498,7666,14973,0.168,551
2021-06-09T15:23:36,42.805,6.029,CST-1368DR,5498,7667,14974,0.168,551
2021-06-09T15:26:37,42.805,6.029,CST-1368DR,5498,7668,14976,0.167,551
2021-06-09T15:29:39,42.805,6.029,CST-1368DR,5498,7669,14979,0.167,551
2021-06-09T15:32:41,42.805,6.029,CST-1368DR,5498,7668,14976,0.167,551
2021-06-09T15:35:42,42.805,6.029,CST-1368DR,5498,7665,14971,0.169,550
2021-06-09T15:38:44,42.805,6.029,CST-1368DR,5498,7667,14974,0.168,551
2021-06-09T15:41:45,42.805,6.029,CST-1368DR,5498,7668,14976,0.167,551
2021-06-09T15:44:47,42.805,6.029,CST-1368DR,5498,7669,14978,0.167,551
2021-06-09T15:47:48,42.805,6.029,CST-1368DR,5498,7668,14977,0.167,551
2021-06-09T15:50:50,42.805,6.029,CST-1368DR,5498,7668,14976,0.167,551
2021-06-09T15:53:52,42.805,6.029,CST-1368DR,5498,7668,14976,0.167,551
2021-06-09T15:56:53,42.805,6.029,CST-1368DR,5498,7668,14977,0.167,551
2021-06-09T15:59:55,42.805,6.029,CST-1368DR,5498,7668,14977,0.167,551
2021-06-09T16:02:56,42.805,6.029,CST-1368DR,5498,7668,14976,0.167,551
2021-06-09T16:05:58,42.805,6.029,CST-1368DR,5498,7667,14974,0.168,551
2021-06-09T16:08:59,42.805,6.029,CST-1368DR,5498,7669,14978,0.167,551
2021-06-09T16:12:01,42.805,6.029,CST-1368DR,5498,7660,14960,0.172,551
2021-06-09T16:15:03,42.805,6.029,CST-1368DR,5498,7669,14978,0.167,550
2021-06-09T16:18:04,42.805,6.029,CST-1368DR,5498,7666,14973,0.168,551
2021-06-09T16:21:06,42.805,6.029,CST-1368DR,5498,7667,14975,0.168,551
2021-06-09T16:24:07,42.805,6.029,CST-1368DR,5498,7668,14977,0.167,551
2021-06-09T16:27:09,42.805,6.029,CST-1368DR,5498,7668,14977,0.167,551
2021-06-09T16:30:11,42.805,6.029,CST-1368DR,5498,7668,14977,0.167,551
2021-06-09T16:33:12,42.805,6.029,CST-1368DR,5498,7665,14970,0.169,550
2021-06-09T16:36:14,42.805,6.029,CST-1368DR,5498,7668,14977,0.167,551
2021-06-09T16:39:15,42.805,6.029,CST-1368DR,5498,7666,14972,0.168,551
2021-06-09T16:42:17,42.805,6.029,CST-1368DR,5498,7668,14977,0.167,551
2021-06-09T16:45:18,42.805,6.029,CST-1368DR,5498,7668,14976,0.167,551
2021-06-09T16:48:20,42.805,6.029,CST-1368DR,5498,7666,14972,0.168,551
2021-06-09T16:51:22,42.805,6.029,CST-1368DR,5498,7667,14974,0.168,551